RH
15 17 18 19 21 23 24 25 23 25 28 26 26 27 26 24 21 20 21 23 22 19 23 23 23 25 24 23 22 21 21 22 22 23 23 25 25 26 27 27 28 29 29 30 29 29 29 29 29 28 29 30 31 33 33 35 35 36 37 37 38 38 38 38 39 40 41 42 44 45 46 46 46 47 47 47 47 48 48 48 47 47 46 46 46 46
16 17 21 21 21 22 25 27 26 25 25 25 24 23 23 24 22 20 22 25 24 21 26 27 25 28 25 23 24 23 23 24 24 25 26 27 28 29 29 29 30 30 30 29 29 29 29 29 29 30 31 32 33 34 35 36 37 37 38 39 40 40 41 41 41 42 42 43 43 43 44 44 45 46 47 47 48 48 48 48 48 47 47 47 48 48
20 19 21 21 22 22 23 25 25 26 25 24 25 23 22 24 24 24 24 27 26 23 27 29 27 28 25 24 25 25 26 27 27 27 28 29 30 30 30 30 31 30 30 30 31 32 33 34 33 34 35 36 37 38 38 40 40 41 42 43 44 45 46 46 46 46 45 44 43 42 42 43 43 44 45 46 47 48 49 49 49 49 49 50 51 53
21 22 22 22 22 20 21 23 24 25 26 25 24 22 22 24 24 24 26 27 28 26 26 28 28 29 27 26 27 27 28 29 29 30 30 31 31 31 31 31 32 32 32 33 34 36 37 38 38 38 39 40 41 42 43 44 45 46 47 48 49 49 49 49 48 48 47 47 46 46 45 44 43 43 44 45 46 48 49 50 52 52 54 55 56 58
22 23 20 20 22 20 19 23 24 22 26 30 27 22 24 25 23 25 28 27 28 28 26 26 29 29 29 30 30 28 30 30 31 32 32 32 32 32 32 33 34 35 36 37 38 39 40 40 41 42 43 44 45 46 47 48 49 50 50 51 52 51 51 50 51 51 51 51 51 50 49 48 47 47 47 49 49 51 51 52 53 55 57 59 60 61
21 21 20 22 25 24 22 24 26 24 24 29 28 25 26 25 23 25 27 26 25 25 24 24 28 32 33 33 33 33 34 33 33 34 34 34 35 35 35 35 36 37 38 39 40 41 42 43 44 45 47 48 48 50 52 52 52 52 52 53 53 53 53 54 54 55 55 55 54 54 55 54 55 55 56 57 58 58 59 59 58 58 57 57 57 57
21 22 24 27 28 28 26 24 26 27 24 23 27 28 27 24 23 24 24 24 25 25 25 25 28 33 36 37 36 36 37 37 37 37 37 38 38 38 38 37 38 39 39 41 42 43 45 47 48 49 50 50 50 52 53 53 52 53 54 55 55 56 57 57 58 59 59 60 61 62 63 64 64 64 64 64 64 63 63 62 61 59 56 52 48 45
23 24 25 28 29 27 25 23 25 28 25 23 27 27 25 23 23 24 23 23 27 28 29 30 30 32 38 40 40 39 39 40 41 42 42 41 41 41 40 40 41 42 43 44 45 47 49 51 52 51 51 50 49 50 53 54 55 56 58 58 60 61 62 63 65 67 68 68 69 69 69 69 68 67 66 64 64 62 60 58 55 51 48 44 39 33
24 23 23 25 27 25 24 24 25 25 22 24 28 27 25 24 24 26 26 28 31 30 31 34 32 35 42 42 42 44 42 43 45 46 46 45 45 44 44 44 45 45 46 48 50 51 52 52 51 51 51 52 52 54 58 61 61 63 65 66 67 68 69 69 69 70 70 70 70 69 68 67 65 64 61 59 57 54 50 46 42 38 35 33 31 29
24 23 23 23 22 23 25 25 24 23 21 24 27 28 29 30 28 27 28 31 35 34 34 37 35 36 44 44 45 46 45 45 47 48 50 50 48 48 46 47 48 49 50 52 52 50 50 50 52 55 57 60 62 65 68 69 69 70 70 70 71 71 70 70 69 69 67 66 63 61 58 56 53 50 47 45 43 40 37 33 31 29 28 27 28 28
24 22 22 23 22 23 24 24 25 24 22 24 26 28 29 31 32 33 36 35 36 39 40 40 38 38 43 46 47 49 49 50 51 51 52 53 52 49 47 49 51 51 52 52 51 50 53 58 62 65 68 70 72 72 73 72 72 71 70 70 70 68 67 64 62 59 55 52 49 46 44 42 40 38 36 35 32 30 29 28 27 26 26 26 27 27
26 22 23 24 23 25 25 24 26 27 27 27 28 26 23 28 30 33 41 37 34 42 41 39 40 39 44 49 50 51 53 54 55 55 57 57 55 51 49 51 52 53 55 55 57 61 65 70 72 74 74 75 75 74 74 73 72 71 68 66 62 57 53 49 46 43 41 40 39 39 38 37 37 36 35 34 32 31 30 28 27 26 27 27 27 26
25 26 29 27 24 25 25 23 25 28 30 29 29 28 28 34 31 33 43 38 35 42 39 36 39 41 50 54 52 53 53 55 57 58 59 58 55 53 54 57 59 61 64 65 68 72 74 76 77 77 77 77 76 74 73 70 67 62 56 50 45 41 37 35 35 35 35 36 36 36 35 34 34 34 34 34 34 34 35 34 31 30 31 31 30 29
24 28 30 27 26 26 23 21 23 25 26 25 28 31 33 37 37 43 50 41 36 41 38 38 41 48 57 56 54 56 54 55 57 57 58 59 60 63 64 67 69 70 71 72 76 78 78 79 78 78 77 75 72 69 65 59 52 45 40 36 35 33 33 33 33 32 32 33 32 32 31 31 31 31 31 32 33 35 39 40 38 36 35 35 35 36
23 25 26 26 24 24 24 24 24 24 26 28 31 31 31 33 35 41 47 41 39 43 41 42 46 55 62 58 56 57 54 54 56 58 63 67 70 72 72 73 74 74 75 78 80 80 79 78 77 74 71 67 63 58 51 45 40 37 36 35 34 33 32 31 29 29 29 30 30 28 27 26 27 29 30 30 30 31 33 36 36 34 34 35 36 37
24 23 26 27 24 24 27 28 27 26 27 31 33 33 34 37 37 40 46 45 44 49 49 50 53 56 59 58 58 58 57 61 64 67 72 73 73 74 74 76 77 78 80 81 80 78 75 72 68 64 61 58 54 48 43 40 39 37 34 31 28 26 24 22 23 25 27 29 28 26 26 26 28 29 30 30 30 30 30 31 32 33 33 34 35 35
24 23 27 28 25 27 28 28 30 29 28 31 33 35 38 38 38 41 45 46 46 48 49 53 59 60 60 64 65 65 68 71 73 74 74 75 76 77 78 79 79 79 79 77 74 70 66 63 61 59 57 54 48 44 41 38 33 28 24 20 17 17 19 23 26 29 29 29 28 28 29 29 29 29 29 31 33 34 34 34 34 36 36 36 36 35
24 24 28 28 27 29 28 28 32 32 32 35 35 38 39 39 44 44 43 48 54 55 54 57 66 70 72 74 72 72 76 76 76 77 77 78 79 79 80 77 74 73 71 69 66 63 62 61 61 60 56 50 45 39 34 27 21 17 14 13 17 23 28 30 30 28 28 27 27 26 27 27 27 26 24 26 29 33 34 33 34 36 36 35 34 33
27 26 28 30 30 31 31 31 34 36 36 36 36 38 36 37 43 43 43 51 58 64 67 68 70 73 76 80 78 78 80 78 79 80 80 80 78 75 73 67 63 64 65 63 62 63 64 62 60 55 48 41 35 28 22 18 14 13 13 13 20 27 26 24 25 24 24 23 22 23 24 24 23 20 20 22 26 29 30 29 30 30 31 32 32 31
31 29 29 32 32 31 32 32 35 38 38 37 37 38 38 39 44 46 49 55 61 69 76 77 77 79 79 81 81 80 80 80 80 80 77 73 68 65 63 60 59 61 63 64 65 64 62 57 50 43 35 30 24 20 18 14 14 16 16 16 19 20 19 22 25 25 23 22 24 25 22 20 18 18 24 29 30 29 28 27 28 28 28 30 31 31
33 32 31 34 34 31 31 31 33 36 34 35 39 39 41 48 52 52 53 57 63 72 82 87 87 85 81 79 80 80 79 78 75 71 66 62 60 61 60 59 61 64 66 66 63 58 51 43 36 31 26 22 20 19 18 17 20 22 21 19 20 21 23 27 26 23 24 26 26 24 20 18 17 19 26 31 31 31 29 27 25 24 25 28 32 35
32 34 34 34 33 29 30 30 33 35 34 38 44 44 46 52 54 56 61 66 69 73 81 88 89 87 83 80 79 77 72 67 63 61 60 60 62 62 61 62 66 68 65 59 52 45 38 32 28 25 22 21 22 22 22 23 25 24 23 22 22 24 26 25 22 24 27 26 23 20 19 18 19 24 31 33 33 32 28 25 23 22 21 22 26 31
32 34 33 31 29 28 31 34 36 41 43 46 50 51 55 59 60 64 71 75 74 74 78 83 87 87 79 74 72 68 62 60 60 60 61 63 65 64 63 65 66 61 53 46 40 35 30 27 24 22 22 23 25 25 25 26 26 26 25 24 24 25 23 23 25 29 28 23 20 20 21 23 28 34 38 37 33 29 24 22 21 20 19 19 22 28
29 30 30 32 34 36 38 42 45 48 50 50 52 59 64 67 69 73 76 76 76 77 77 78 82 79 68 63 62 59 57 59 60 62 65 67 68 65 61 59 54 48 42 38 34 29 26 24 22 22 25 26 27 27 27 28 28 26 24 24 25 23 22 26 29 29 25 22 21 22 27 33 38 39 37 33 29 25 21 19 18 17 20 25 30 33
27 30 33 39 46 50 51 51 50 51 53 54 61 69 72 73 74 74 75 76 74 73 70 70 73 68 59 56 55 54 58 61 63 65 66 66 61 52 49 48 44 41 37 31 27 26 24 23 23 25 28 28 27 28 28 28 27 25 24 25 24 23 26 31 31 29 26 24 26 31 36 40 39 35 32 28 24 21 19 19 19 20 26 32 35 36
33 37 41 45 49 52 52 53 53 56 61 65 70 75 76 76 73 68 70 73 69 64 62 63 64 61 55 54 54 55 58 59 58 55 53 52 47 41 42 42 38 34 30 26 26 25 23 23 26 29 29 28 29 29 29 28 27 26 26 25 24 28 34 35 33 32 29 28 35 40 41 39 35 30 26 23 21 19 20 23 24 27 33 35 35 34
43 44 46 50 52 53 53 56 61 65 68 71 73 74 72 70 67 64 65 64 59 57 57 57 57 55 55 56 55 54 53 49 45 42 43 45 42 39 40 36 31 29 27 26 26 25 24 26 29 30 29 29 29 29 29 28 28 29 28 27 29 36 39 36 35 34 31 34 41 42 37 32 28 25 23 22 21 20 24 30 32 33 35 35 35 34
46 45 48 54 58 59 62 64 66 68 69 69 68 63 60 59 58 57 55 50 49 54 56 54 55 55 56 57 55 53 48 43 42 43 45 44 39 35 34 30 28 29 27 27 26 25 27 29 29 30 29 29 29 29 30 30 31 33 32 33 36 38 39 38 37 35 35 40 43 39 32 28 26 25 25 25 24 25 31 37 36 36 36 35 35 34
48 50 55 61 62 65 68 68 65 63 62 59 55 52 51 53 52 48 46 46 48 54 56 55 57 58 57 55 51 48 45 44 45 46 42 36 31 31 31 29 29 28 26 26 25 26 29 31 31 31 30 30 31 32 33 34 35 38 39 39 39 38 39 39 38 37 40 43 41 35 31 29 28 29 29 30 32 35 38 39 36 35 35 34 33 33
54 59 64 65 66 68 68 65 59 55 53 50 47 47 49 49 48 47 47 49 52 56 57 58 58 56 51 47 45 45 46 48 47 42 34 29 29 31 31 29 28 26 25 26 26 29 31 31 32 32 32 33 35 36 37 39 40 42 43 41 39 39 41 41 39 40 43 41 36 33 33 33 32 33 35 37 39 39 39 37 35 34 33 32 32 30
56 61 67 66 66 66 62 56 52 49 48 48 47 48 49 48 49 51 53 57 60 60 58 55 53 49 44 41 42 46 49 48 43 36 29 28 31 32 30 28 26 25 26 27 29 31 33 33 34 34 34 36 38 40 42 43 43 43 43 42 42 43 44 42 42 44 43 38 34 34 36 35 34 37 40 40 39 37 35 34 33 33 32 31 31 30
60 62 68 67 62 60 54 50 49 48 47 50 52 51 50 50 53 56 59 61 60 58 56 52 50 47 42 39 42 48 49 44 36 31 29 30 32 31 28 27 26 27 29 30 32 34 34 35 35 35 38 40 43 45 47 46 44 44 44 44 44 44 44 43 44 42 39 35 34 37 39 39 39 41 40 38 36 35 34 33 32 33 35 36 36 37
63 61 62 61 55 53 52 48 46 47 50 54 54 50 50 53 57 58 60 59 55 53 54 52 49 46 42 42 45 45 41 36 33 30 30 32 31 29 28 29 29 30 32 33 34 36 36 36 37 40 44 47 48 49 49 48 46 46 46 45 44 43 43 41 39 37 34 34 37 41 44 44 44 43 40 39 39 39 38 38 37 39 41 41 41 41
63 57 55 53 49 51 53 47 44 52 58 56 51 49 53 58 59 59 58 56 50 47 48 48 46 45 45 46 44 39 35 34 33 31 32 32 31 29 30 31 32 34 35 35 36 37 37 38 42 46 49 51 52 51 48 47 48 49 49 47 44 42 40 38 36 34 35 37 42 46 47 46 46 44 42 42 43 43 43 43 43 43 43 43 43 43
57 52 50 50 48 49 50 45 44 54 59 54 50 53 55 56 56 55 54 52 48 44 44 46 46 46 47 45 40 36 35 34 32 31 33 32 31 33 33 33 34 36 36 36 37 38 40 44 49 51 53 53 52 49 47 49 50 49 48 46 44 41 38 37 36 37 40 43 46 48 48 48 47 45 45 45 47 49 50 50 49 49 50 50 49 48
50 48 47 48 46 45 46 47 46 49 53 55 57 56 54 53 53 52 51 52 49 45 44 46 47 47 44 40 36 35 35 33 30 31 32 32 33 36 36 35 37 37 36 38 40 42 47 50 53 55 54 52 48 46 48 50 50 48 45 42 40 38 37 37 38 41 45 48 48 49 49 50 50 49 50 51 53 56 57 57 56 56 57 58 59 59
47 46 44 45 46 45 46 50 52 55 59 63 62 54 51 53 54 53 54 53 48 45 46 48 47 44 39 36 35 35 34 32 30 29 32 34 37 39 38 37 37 37 38 42 45 48 52 55 56 57 54 49 46 47 50 51 49 46 43 39 38 37 37 38 42 46 48 49 50 51 52 53 55 56 58 59 60 62 61 61 61 61 64 65 66 67
43 43 43 44 45 48 50 53 61 70 69 62 56 51 49 51 50 49 53 53 47 47 49 48 44 39 36 35 35 33 33 33 31 31 34 37 40 40 39 37 37 39 43 46 48 52 56 57 57 55 51 47 46 49 51 49 47 45 42 40 39 38 39 42 46 48 49 50 52 54 56 61 64 66 66 66 66 66 66 67 68 70 72 74 74 74
41 43 46 46 47 53 56 57 62 67 63 55 53 49 47 47 46 46 51 54 50 48 47 43 40 36 35 35 35 34 37 39 36 34 36 39 40 40 39 37 38 42 48 50 52 55 58 58 56 52 48 46 47 49 49 47 46 44 42 41 41 42 45 47 49 50 50 52 55 59 63 68 70 71 72 73 75 76 76 76 75 74 76 78 78 78
44 46 47 47 52 57 59 56 52 51 52 52 50 46 42 42 44 49 53 53 48 45 43 40 38 36 35 37 37 38 42 45 42 39 39 40 40 39 37 37 41 48 51 52 54 57 58 58 56 51 48 47 47 48 47 45 44 42 41 42 44 47 50 52 52 53 55 57 61 64 68 71 72 76 81 84 85 85 83 82 80 78 77 77 78 78
51 53 52 51 55 58 60 56 46 43 50 50 45 43 41 41 46 54 56 51 45 42 40 38 37 38 38 39 40 41 44 46 45 43 43 42 40 38 37 41 48 53 54 54 56 57 57 56 54 52 51 50 48 47 46 44 42 41 41 42 44 48 52 54 55 57 60 64 68 70 70 73 78 85 90 91 91 90 89 88 86 82 79 77 76 77
54 57 57 57 57 57 58 55 46 45 50 48 43 43 43 45 53 56 52 47 43 39 39 38 39 40 41 40 42 44 44 45 46 45 45 42 39 38 41 48 53 54 53 54 56 57 57 53 50 49 49 49 49 48 46 43 42 41 42 44 47 51 54 55 56 59 63 69 72 72 74 80 88 93 94 95 95 95 93 91 87 82 79 78 77 78
54 57 60 59 56 55 56 54 49 47 48 46 45 46 47 50 54 51 45 43 41 39 40 41 41 42 42 42 44 45 46 47 47 46 45 41 39 43 49 54 55 54 53 55 57 57 56 53 50 48 47 47 48 47 44 43 42 42 44 47 51 54 56 57 58 61 67 70 71 74 81 89 93 96 98 99 99 97 94 91 87 82 79 79 80 81
56 59 60 56 54 56 57 52 47 47 48 47 47 50 50 49 49 47 44 43 40 40 42 43 43 44 44 44 45 46 47 48 48 47 44 41 42 49 55 56 54 53 54 56 57 57 55 52 50 49 47 48 47 45 44 44 44 43 45 51 55 57 57 56 59 65 69 71 73 80 88 92 94 98 101 102 100 97 94 92 87 82 79 80 82 83
57 55 51 50 50 51 50 46 44 47 51 51 49 50 50 50 48 46 43 41 41 43 44 44 44 45 46 46 47 48 49 51 50 47 43 42 47 54 56 55 55 56 57 57 57 56 54 52 50 48 47 47 46 44 44 45 46 45 48 53 59 60 57 57 62 69 71 72 79 87 91 91 95 100 101 101 100 97 94 93 88 82 79 81 83 84
53 47 45 48 48 44 42 43 46 50 53 53 52 52 51 50 47 45 42 42 44 46 45 46 46 46 47 49 50 51 53 52 50 45 43 47 54 56 55 55 57 59 58 57 56 55 52 50 49 48 46 44 44 43 44 46 48 50 53 58 61 60 58 60 66 71 73 79 87 92 92 92 96 99 100 100 100 98 97 97 91 82 79 82 83 83
48 43 44 46 47 44 44 45 48 51 53 53 54 53 51 49 46 44 44 45 46 46 47 48 48 48 48 51 53 55 55 53 49 46 47 53 55 53 54 58 60 60 58 56 55 53 51 49 49 47 46 43 42 43 43 45 49 54 59 63 63 59 60 66 72 73 77 86 93 94 93 95 97 98 99 100 100 99 99 100 95 86 82 82 83 81
44 42 44 46 48 48 47 46 48 51 52 53 55 53 50 48 46 45 46 47 47 48 48 49 50 51 51 53 55 56 55 52 49 48 52 55 53 52 56 60 60 57 55 54 53 51 50 50 49 48 46 44 43 43 44 45 50 57 61 63 62 60 63 70 75 78 84 93 96 95 95 98 98 98 100 100 100 99 98 97 96 91 86 83 82 81
42 44 45 47 49 50 48 47 49 51 52 54 55 52 48 49 48 48 48 49 48 49 49 50 53 54 54 53 53 55 55 52 49 50 53 52 51 54 58 58 57 55 52 51 50 50 50 50 49 47 45 44 44 44 45 47 52 59 63 63 61 62 67 72 76 81 90 97 97 96 97 99 99 99 100 100 100 99 97 97 97 96 92 88 84 81
44 45 46 49 53 53 52 52 54 56 56 55 53 50 50 51 50 49 49 50 49 49 50 51 51 52 53 52 52 54 54 50 47 49 50 50 53 57 58 56 54 52 50 49 48 48 49 50 49 47 46 45 46 46 47 49 54 59 63 63 63 67 73 75 78 85 94 98 97 96 97 98 98 99 100 100 100 99 98 97 97 98 99 97 91 84
43 44 46 50 53 52 52 54 57 58 57 55 52 50 51 51 50 50 50 50 49 49 49 49 49 50 51 51 52 53 51 46 45 47 48 50 53 56 56 56 54 50 48 47 47 47 47 48 47 46 46 47 48 49 50 51 55 60 63 63 67 74 79 79 82 90 97 98 98 98 98 98 98 99 99 100 100 100 98 97 96 96 97 100 98 92